map of KOLG home
KOLG - Airport
Location
City:  Solon Springs, Wisconsin, United States
Name:Solon Springs Municipal Airport
ICAO:KOLG
FAA LID:OLG

Details
Type:Airport (Airfield)
Use:Public/Civil
Latitude:4618'53"N (46.314751)
Longitude:9148'59"W (-91.816375)
Datum:WGS 1984
Elevation:1102 ft (336 m)
Variation:1.20W (WMM2015 magnetic declination)
-0.06 annual change
Runways:1
Longest:3099 × 60 ft (945 × 18.5 m), paved

Time
Time Zone:UTC-6 (DST-5)
Local Time:

Weather
METAR:KOLG 240715Z AUTO 00000KT 10SM OVC110 17/16 A3007 RMK AO1

Related Locations
Nearby:
Farthest:YAUG: 10803 mi / 17386 km
Augusta [Augusta Airport], WA, AU

Find:

   beyond  
but within

Other Information
Maps:
NOTAMs:
Links:
Sources:

  
flag of United States
flag of Wisconsin
  

Sectional Chart

Flight Planning
at skyvector.com

Satellite Image

Google Maps Satellite view

 

Copyright © 2004-2018 Karl L. Swartz. All rights reserved.
The Great Circle Mapper name and logo are trademarks of the Great Circle Mapper.
All other trademarks mentioned herein belong to their respective owners.
Please see credits for attibutions and further copyright information.

  Follow gcmap on Facebook Follow gcmap on Twitter Follow gcmap on Google+ GCmap on LinkedIn

hCard Microformat

Geo Microformat